Time,TemperatureF,DewpointF,PressureIn,WindDirection,WindDirectionDegrees,WindSpeedMPH,WindSpeedGustMPH,Humidity,HourlyPrecipIn,Conditions,Clouds,dailyrainin,SoftwareType,DateUTC
2013-01-13 00:08:00,44.7,43.0,30.13,NE,49,4.0,6.0,94,0.00,,,0.00,weatherlink.com 1.10,2013-01-13 05:08:00,
2013-01-13 00:23:00,44.8,43.0,30.13,ESE,107,2.0,5.0,93,0.00,,,0.00,weatherlink.com 1.10,2013-01-13 05:23:00,
2013-01-13 00:38:00,44.7,43.0,30.13,NE,50,0.0,5.0,93,0.00,,,0.00,weatherlink.com 1.10,2013-01-13 05:38:00,
2013-01-13 00:53:00,44.6,43.0,30.14,SSE,158,0.0,1.0,94,0.00,,,0.00,weatherlink.com 1.10,2013-01-13 05:53:00,
2013-01-13 01:08:00,44.3,42.0,30.15,SSW,200,2.0,2.0,93,0.00,,,0.00,weatherlink.com 1.10,2013-01-13 06:08:00,
2013-01-13 01:23:00,42.4,41.0,30.16,SSE,162,0.0,3.0,93,0.00,,,0.00,weatherlink.com 1.10,2013-01-13 06:23:00,
2013-01-13 01:38:00,42.5,41.0,30.15,SSE,154,0.0,1.0,95,0.00,,,0.00,weatherlink.com 1.10,2013-01-13 06:38:00,
2013-01-13 01:53:00,43.0,42.0,30.15,SSE,153,0.0,0.0,95,0.00,,,0.00,weatherlink.com 1.10,2013-01-13 06:53:00,
2013-01-13 02:08:00,43.3,42.0,30.15,SSE,154,0.0,0.0,95,0.00,,,0.00,weatherlink.com 1.10,2013-01-13 07:08:00,
2013-01-13 02:23:00,43.3,42.0,30.16,SSE,154,0.0,1.0,96,0.00,,,0.00,weatherlink.com 1.10,2013-01-13 07:23:00,
2013-01-13 02:38:00,43.5,43.0,30.15,SSE,154,0.0,1.0,96,0.00,,,0.00,weatherlink.com 1.10,2013-01-13 07:38:00,
2013-01-13 02:53:00,41.9,40.0,30.15,SSW,211,2.0,4.0,94,0.00,,,0.00,weatherlink.com 1.10,2013-01-13 07:53:00,
2013-01-13 03:08:00,41.4,40.0,30.14,SSE,160,0.0,1.0,96,0.00,,,0.00,weatherlink.com 1.10,2013-01-13 08:08:00,
2013-01-13 03:23:00,41.4,40.0,30.15,SSE,160,0.0,0.0,96,0.00,,,0.00,weatherlink.com 1.10,2013-01-13 08:23:00,
2013-01-13 03:38:00,41.7,41.0,30.14,SE,134,0.0,1.0,96,0.00,,,0.00,weatherlink.com 1.10,2013-01-13 08:38:00,
2013-01-13 03:53:00,41.8,41.0,30.14,SE,134,1.0,1.0,96,0.00,,,0.00,weatherlink.com 1.10,2013-01-13 08:53:00,
2013-01-13 04:08:00,42.2,41.0,30.13,SSE,152,1.0,2.0,97,0.00,,,0.00,weatherlink.com 1.10,2013-01-13 09:08:00,
2013-01-13 04:23:00,42.8,42.0,30.13,SE,129,1.0,4.0,97,0.00,,,0.00,weatherlink.com 1.10,2013-01-13 09:23:00,
2013-01-13 04:38:00,43.0,42.0,30.14,SSE,149,0.0,2.0,97,0.00,,,0.00,weatherlink.com 1.10,2013-01-13 09:38:00,
2013-01-13 04:53:00,43.2,42.0,30.13,East,95,0.0,1.0,97,0.00,,,0.00,weatherlink.com 1.10,2013-01-13 09:53:00,
2013-01-13 05:08:00,43.7,43.0,30.14,ESE,110,0.0,3.0,97,0.00,,,0.00,weatherlink.com 1.10,2013-01-13 10:08:00,
2013-01-13 05:23:00,44.0,43.0,30.13,SSE,167,0.0,3.0,97,0.00,,,0.00,weatherlink.com 1.10,2013-01-13 10:23:00,
2013-01-13 05:38:00,44.2,43.0,30.14,ESE,120,0.0,1.0,97,0.00,,,0.00,weatherlink.com 1.10,2013-01-13 10:38:00,
2013-01-13 05:53:00,44.3,44.0,30.14,SSE,149,0.0,1.0,97,0.01,,,0.01,weatherlink.com 1.10,2013-01-13 10:53:00,
2013-01-13 06:08:00,44.4,44.0,30.13,NE,34,0.0,1.0,97,0.01,,,0.01,weatherlink.com 1.10,2013-01-13 11:08:00,
2013-01-13 06:23:00,44.6,44.0,30.12,WNW,294,0.0,2.0,97,0.01,,,0.01,weatherlink.com 1.10,2013-01-13 11:23:00,
2013-01-13 06:38:00,44.8,44.0,30.13,SW,228,0.0,2.0,97,0.01,,,0.01,weatherlink.com 1.10,2013-01-13 11:38:00,
2013-01-13 06:53:00,44.9,44.0,30.14,ENE,57,0.0,1.0,97,0.00,,,0.01,weatherlink.com 1.10,2013-01-13 11:53:00,
2013-01-13 07:08:00,45.0,44.0,30.13,ENE,63,1.0,3.0,97,0.00,,,0.01,weatherlink.com 1.10,2013-01-13 12:08:00,
2013-01-13 07:23:00,45.2,45.0,30.16,NW,322,0.0,3.0,98,0.00,,,0.01,weatherlink.com 1.10,2013-01-13 12:23:00,
2013-01-13 07:38:00,45.6,45.0,30.17,NW,320,0.0,2.0,98,0.00,,,0.01,weatherlink.com 1.10,2013-01-13 12:38:00,
2013-01-13 07:53:00,45.9,45.0,30.17,SSE,158,2.0,3.0,98,0.00,,,0.01,weatherlink.com 1.10,2013-01-13 12:53:00,
2013-01-13 08:08:00,45.7,45.0,30.16,SW,233,0.0,2.0,98,0.00,,,0.01,weatherlink.com 1.10,2013-01-13 13:08:00,
2013-01-13 08:23:00,46.1,46.0,30.15,ESE,103,1.0,3.0,98,0.00,,,0.01,weatherlink.com 1.10,2013-01-13 13:23:00,
2013-01-13 08:38:00,45.8,45.0,30.16,SE,146,3.0,5.0,97,0.00,,,0.01,weatherlink.com 1.10,2013-01-13 13:38:00,
2013-01-13 08:53:00,43.6,43.0,30.16,SE,135,2.0,5.0,96,0.00,,,0.01,weatherlink.com 1.10,2013-01-13 13:53:00,
2013-01-13 09:08:00,43.9,43.0,30.16,SSE,163,2.0,4.0,97,0.00,,,0.01,weatherlink.com 1.10,2013-01-13 14:08:00,
2013-01-13 09:23:00,43.6,43.0,30.17,SSW,194,2.0,4.0,97,0.00,,,0.01,weatherlink.com 1.10,2013-01-13 14:23:00,
2013-01-13 09:38:00,43.8,43.0,30.17,SE,146,1.0,3.0,97,0.00,,,0.01,weatherlink.com 1.10,2013-01-13 14:38:00,
2013-01-13 09:53:00,43.5,43.0,30.17,SE,136,1.0,4.0,97,0.00,,,0.01,weatherlink.com 1.10,2013-01-13 14:53:00,
2013-01-13 10:09:00,43.1,42.0,30.17,SSE,156,2.0,6.0,97,0.00,,,0.01,weatherlink.com 1.10,2013-01-13 15:09:00,
2013-01-13 10:24:00,43.6,43.0,30.16,SE,134,4.0,6.0,97,0.00,,,0.01,weatherlink.com 1.10,2013-01-13 15:24:00,
2013-01-13 10:39:00,45.3,45.0,30.16,ESE,109,5.0,7.0,98,0.00,,,0.01,weatherlink.com 1.10,2013-01-13 15:39:00,
2013-01-13 10:54:00,46.1,46.0,30.16,SE,145,3.0,6.0,98,0.00,,,0.01,weatherlink.com 1.10,2013-01-13 15:54:00,
2013-01-13 11:09:00,46.3,46.0,30.15,SE,134,6.0,7.0,98,0.00,,,0.01,weatherlink.com 1.10,2013-01-13 16:09:00,
2013-01-13 11:24:00,45.9,45.0,30.15,SSE,163,3.0,8.0,97,0.00,,,0.01,weatherlink.com 1.10,2013-01-13 16:24:00,
2013-01-13 11:39:00,45.5,45.0,30.15,SSE,159,6.0,10.0,97,0.00,,,0.01,weatherlink.com 1.10,2013-01-13 16:39:00,
2013-01-13 11:54:00,44.9,44.0,30.15,SE,143,6.0,10.0,97,0.00,,,0.01,weatherlink.com 1.10,2013-01-13 16:54:00,
2013-01-13 12:09:00,45.5,45.0,30.15,SE,141,5.0,10.0,98,0.00,,,0.01,weatherlink.com 1.10,2013-01-13 17:09:00,
2013-01-13 12:24:00,46.6,46.0,30.14,SSE,167,4.0,9.0,98,0.00,,,0.01,weatherlink.com 1.10,2013-01-13 17:24:00,
2013-01-13 12:39:00,47.7,47.0,30.12,East,84,3.0,8.0,98,0.00,,,0.01,weatherlink.com 1.10,2013-01-13 17:39:00,
2013-01-13 12:54:00,48.1,48.0,30.12,SE,145,2.0,10.0,98,0.00,,,0.01,weatherlink.com 1.10,2013-01-13 17:54:00,
2013-01-13 13:09:00,49.0,49.0,30.10,NNW,336,3.0,7.0,98,0.00,,,0.01,weatherlink.com 1.10,2013-01-13 18:09:00,
2013-01-13 13:24:00,49.0,48.0,30.11,SE,145,6.0,9.0,97,0.00,,,0.01,weatherlink.com 1.10,2013-01-13 18:24:00,
2013-01-13 13:39:00,48.8,48.0,30.10,ENE,65,2.0,9.0,97,0.00,,,0.01,weatherlink.com 1.10,2013-01-13 18:39:00,
2013-01-13 13:54:00,48.3,47.0,30.11,SE,125,7.0,13.0,96,0.00,,,0.01,weatherlink.com 1.10,2013-01-13 18:54:00,
2013-01-13 14:09:00,48.3,48.0,30.10,SE,146,7.0,11.0,97,0.00,,,0.01,weatherlink.com 1.10,2013-01-13 19:09:00,
2013-01-13 14:24:00,48.5,48.0,30.10,NNW,345,3.0,10.0,97,0.00,,,0.01,weatherlink.com 1.10,2013-01-13 19:24:00,
2013-01-13 14:39:00,49.3,49.0,30.10,SSE,150,2.0,9.0,97,0.00,,,0.01,weatherlink.com 1.10,2013-01-13 19:39:00,
2013-01-13 14:54:00,49.7,49.0,30.10,North,355,5.0,13.0,97,0.01,,,0.02,weatherlink.com 1.10,2013-01-13 19:54:00,
2013-01-13 15:09:00,49.1,48.0,30.11,SSE,165,3.0,10.0,97,0.01,,,0.02,weatherlink.com 1.10,2013-01-13 20:09:00,
2013-01-13 15:24:00,49.9,49.0,30.10,ESE,120,2.0,7.0,97,0.01,,,0.02,weatherlink.com 1.10,2013-01-13 20:24:00,
2013-01-13 15:39:00,49.3,48.0,30.09,SSE,149,5.0,10.0,96,0.01,,,0.02,weatherlink.com 1.10,2013-01-13 20:39:00,
2013-01-13 15:54:00,49.6,49.0,30.09,SSE,148,8.0,8.0,97,0.00,,,0.02,weatherlink.com 1.10,2013-01-13 20:54:00,
2013-01-13 16:09:00,49.8,49.0,30.09,SE,124,1.0,10.0,97,0.00,,,0.02,weatherlink.com 1.10,2013-01-13 21:09:00,
2013-01-13 16:24:00,50.2,49.0,30.08,ESE,109,6.0,11.0,97,0.00,,,0.02,weatherlink.com 1.10,2013-01-13 21:24:00,
2013-01-13 16:39:00,50.2,49.0,30.08,SE,136,6.0,8.0,97,0.00,,,0.02,weatherlink.com 1.10,2013-01-13 21:39:00,
2013-01-13 16:54:00,50.7,50.0,30.08,ESE,121,6.0,12.0,97,0.00,,,0.02,weatherlink.com 1.10,2013-01-13 21:54:00,
2013-01-13 17:09:00,49.7,49.0,30.09,SE,142,5.0,9.0,96,0.00,,,0.02,weatherlink.com 1.10,2013-01-13 22:09:00,
2013-01-13 17:24:00,49.9,49.0,30.08,NNW,345,1.0,11.0,97,0.00,,,0.02,weatherlink.com 1.10,2013-01-13 22:24:00,
2013-01-13 17:39:00,50.2,49.0,30.07,SE,129,1.0,8.0,97,0.00,,,0.02,weatherlink.com 1.10,2013-01-13 22:39:00,
2013-01-13 17:54:00,50.7,50.0,30.06,ESE,109,3.0,6.0,97,0.00,,,0.02,weatherlink.com 1.10,2013-01-13 22:54:00,
2013-01-13 18:09:00,51.0,50.0,30.06,SSE,150,8.0,16.0,97,0.00,,,0.02,weatherlink.com 1.10,2013-01-13 23:09:00,
2013-01-13 18:24:00,50.2,49.0,30.06,SE,141,8.0,13.0,97,0.00,,,0.02,weatherlink.com 1.10,2013-01-13 23:24:00,
2013-01-13 18:39:00,49.9,49.0,30.06,SE,128,12.0,15.0,97,0.00,,,0.02,weatherlink.com 1.10,2013-01-13 23:39:00,
2013-01-13 18:54:00,49.8,49.0,30.05,SSE,164,10.0,16.0,97,0.00,,,0.02,weatherlink.com 1.10,2013-01-13 23:54:00,
2013-01-13 19:09:00,49.6,49.0,30.05,SE,146,9.0,16.0,97,0.00,,,0.02,weatherlink.com 1.10,2013-01-14 00:09:00,
2013-01-13 19:24:00,48.8,48.0,30.06,South,172,7.0,14.0,97,0.00,,,0.02,weatherlink.com 1.10,2013-01-14 00:24:00,
2013-01-13 19:39:00,48.4,48.0,30.05,South,172,3.0,13.0,98,0.00,,,0.02,weatherlink.com 1.10,2013-01-14 00:39:00,
2013-01-13 19:54:00,49.0,49.0,30.05,SSE,153,9.0,14.0,98,0.01,,,0.03,weatherlink.com 1.10,2013-01-14 00:54:00,
2013-01-13 20:09:00,49.7,49.0,30.05,East,79,4.0,13.0,98,0.01,,,0.03,weatherlink.com 1.10,2013-01-14 01:09:00,
2013-01-13 20:24:00,49.2,49.0,30.05,SSE,154,13.0,17.0,98,0.01,,,0.03,weatherlink.com 1.10,2013-01-14 01:24:00,
2013-01-13 20:39:00,48.8,48.0,30.05,SSE,150,9.0,19.0,98,0.01,,,0.03,weatherlink.com 1.10,2013-01-14 01:39:00,
2013-01-13 20:54:00,48.7,48.0,30.05,SE,134,11.0,15.0,98,0.00,,,0.03,weatherlink.com 1.10,2013-01-14 01:54:00,
2013-01-13 21:09:00,48.6,48.0,30.05,ESE,103,12.0,17.0,98,0.00,,,0.03,weatherlink.com 1.10,2013-01-14 02:09:00,
2013-01-13 21:24:00,47.9,47.0,30.05,SSE,150,12.0,14.0,98,0.00,,,0.03,weatherlink.com 1.10,2013-01-14 02:24:00,
2013-01-13 21:39:00,47.7,47.0,30.05,SSW,197,6.0,11.0,98,0.00,,,0.03,weatherlink.com 1.10,2013-01-14 02:39:00,
2013-01-13 21:54:00,47.6,47.0,30.04,SE,146,2.0,9.0,98,0.01,,,0.04,weatherlink.com 1.10,2013-01-14 02:54:00,
2013-01-13 22:10:00,47.8,47.0,30.05,South,172,7.0,12.0,98,0.01,,,0.04,weatherlink.com 1.10,2013-01-14 03:10:00,
2013-01-13 22:25:00,45.4,45.0,30.05,SSE,165,7.0,10.0,97,0.01,,,0.04,weatherlink.com 1.10,2013-01-14 03:25:00,
2013-01-13 22:40:00,47.8,47.0,30.05,SE,134,8.0,14.0,98,0.01,,,0.04,weatherlink.com 1.10,2013-01-14 03:40:00,
2013-01-13 22:55:00,48.6,48.0,30.04,SSE,153,10.0,14.0,98,0.00,,,0.04,weatherlink.com 1.10,2013-01-14 03:55:00,
2013-01-13 23:10:00,48.8,48.0,30.04,SE,129,12.0,16.0,98,0.00,,,0.04,weatherlink.com 1.10,2013-01-14 04:10:00,
2013-01-13 23:25:00,48.5,48.0,30.04,SE,138,8.0,17.0,98,0.00,,,0.04,weatherlink.com 1.10,2013-01-14 04:25:00,
2013-01-13 23:40:00,48.9,48.0,30.04,SSE,158,6.0,14.0,98,0.00,,,0.04,weatherlink.com 1.10,2013-01-14 04:40:00,
2013-01-13 23:55:00,49.3,49.0,30.04,SSE,162,9.0,13.0,98,0.00,,,0.04,weatherlink.com 1.10,2013-01-14 04:55:00,